Temperature
14 14 14 14 14 14 14 14 14 14 14 14 13 13 13 13 13 13 13 13 13 13 13 13 13 13 13 13 13 13 13 13 13 13 13 13 13 13
15 15 14 14 14 14 14 14 14 14 14 14 13 13 13 13 13 13 13 13 13 13 13 13 13 13 13 13 13 13 13 13 13 13 13 13 12 12
14 15 14 14 14 14 14 14 14 14 14 14 13 13 13 13 13 13 13 13 13 13 13 13 13 13 13 13 13 13 12 12 12 12 12 12 12 12
14 14 14 14 14 14 14 14 14 14 13 13 13 13 13 13 13 13 13 13 13 13 13 13 13 12 12 12 12 12 12 12 12 12 12 12 11 11
14 14 14 14 14 14 14 14 14 14 13 13 13 13 13 13 13 13 13 13 12 12 12 12 12 12 12 12 12 12 12 11 11 11 11 11 11 11
14 14 14 14 14 14 14 14 14 14 13 13 13 13 13 13 13 13 12 12 12 12 12 12 12 12 12 12 11 11 11 11 11 11 11 11 11 11
14 14 14 14 14 14 14 14 14 13 13 13 13 12 12 12 12 12 12 12 12 12 11 11 11 11 11 11 11 11 11 11 11 11 10 10 10 10
14 14 14 14 14 14 14 13 13 13 13 13 12 12 12 12 12 12 12 11 11 11 11 11 11 11 11 11 11 11 10 10 10 10 10 10 10 10
14 14 14 14 14 14 13 13 13 13 13 12 12 12 12 12 12 11 11 11 11 11 11 11 11 11 10 10 10 10 10 10 10 10 9 9 9 9
14 14 14 14 13 13 13 13 13 12 12 12 12 12 12 11 11 11 11 11 10 10 10 10 10 10 10 10 10 10 9 9 9 9 9 9 9 9
13 13 13 13 13 13 13 13 12 12 12 12 11 11 11 11 11 10 10 10 10 10 10 9 9 9 10 10 9 9 9 9 8 8 8 8 8 8
13 13 13 13 13 12 12 12 12 12 12 11 11 11 11 10 10 10 10 9 9 9 9 9 9 8 8 9 9 8 8 8 8 8 8 8 7 7
13 13 13 12 12 12 12 12 11 11 11 11 10 10 10 10 10 9 9 9 8 8 8 8 8 8 7 7 8 8 8 7 7 7 7 7 7 7
12 12 12 12 12 12 11 11 11 11 10 10 10 10 9 9 9 9 8 8 8 8 7 7 7 7 7 7 7 7 7 7 7 7 6 6 6 6
12 12 12 11 11 11 11 11 10 10 10 9 9 9 9 8 8 8 8 8 8 7 7 7 6 6 6 6 6 6 6 6 6 5 5 5 5 5
12 11 11 11 11 10 10 10 10 9 9 9 8 8 8 8 8 7 7 7 7 7 6 6 6 6 5 5 5 5 5 5 5 5 5 5 5 4
11 11 11 11 10 10 10 9 9 9 8 8 8 8 7 7 7 6 6 6 6 6 6 5 5 5 5 5 5 4 4 4 4 4 4 4 4 4
11 11 10 10 10 9 9 8 8 8 7 7 7 7 6 6 6 6 5 5 5 5 4 4 4 4 5 4 4 3 3 3 3 3 3 3 3 3
10 10 10 9 9 8 8 8 7 7 7 6 6 6 5 5 5 5 4 4 4 4 4 3 3 3 3 3 3 3 2 2 2 2 2 2 2 2
10 9 9 9 8 8 8 7 7 6 6 6 5 5 5 5 4 4 4 3 3 3 3 3 2 2 2 1 2 2 2 1 1 1 1 1 1 1
9 9 8 8 8 7 7 7 6 6 6 5 5 5 4 4 4 3 3 3 2 2 2 2 2 1 1 1 1 1 1 1 1 0 0 0 0 0
8 8 8 7 7 7 6 6 6 5 5 4 4 4 3 3 3 2 2 2 2 1 1 1 1 1 1 0 0 0 0 1 1 0 -0 -0 -1 -1
8 7 7 7 7 6 6 5 5 4 4 4 3 3 3 2 2 2 1 1 1 1 0 0 0 0 -0 -0 -1 -1 -1 -1 -0 -0 -0 -0 -1 -1
Wind_Speed
2 2 2 2 2 2 2 2 2 1 1 0 1 1 3 4 3 3 3 4 4 5 5 6 7 7 7 7 7 8 8 8 8 7 7 7 8 7
2 3 3 2 2 2 2 2 2 1 1 1 0 1 2 2 2 1 2 2 1 1 2 3 4 5 5 5 6 6 7 7 7 7 7 7 7 7
2 3 3 3 2 2 2 2 2 2 1 2 1 1 2 1 1 1 1 2 2 2 1 1 2 3 3 3 4 5 5 5 6 6 7 7 7 7
1 2 2 2 2 2 2 2 2 2 2 1 2 2 2 1 1 1 2 2 2 3 4 3 3 3 3 2 3 4 4 5 5 6 6 6 7 7
2 2 2 2 2 1 1 2 1 2 1 1 1 1 1 1 1 2 2 2 3 3 5 5 6 5 5 5 4 5 5 5 6 6 6 7 8 8
2 3 3 3 2 2 2 2 2 2 2 1 1 2 1 1 1 2 3 3 3 3 3 4 6 7 7 7 6 7 7 7 7 7 7 8 8 9
2 3 4 4 5 4 3 2 2 2 1 1 1 2 2 2 1 1 2 3 3 1 2 3 3 4 6 8 8 8 9 9 9 9 9 9 10 10
2 2 3 4 3 3 3 2 2 1 1 1 1 2 3 2 2 2 2 3 4 3 2 3 2 2 5 6 7 9 9 9 9 9 10 10 11 11
1 1 1 2 3 1 0 1 1 1 2 1 0 2 2 2 2 2 3 3 3 3 2 4 3 3 5 6 7 8 8 8 9 10 11 11 12 12
1 1 2 2 3 2 1 1 1 1 2 2 2 2 1 1 1 2 2 3 4 3 2 3 3 4 5 6 7 6 7 8 9 10 11 12 13 14
2 3 3 2 4 4 2 1 2 2 2 1 2 3 3 4 3 2 3 3 4 4 2 2 3 4 4 3 6 8 8 9 11 12 13 13 14 14
2 3 4 3 4 4 2 2 2 3 3 4 3 3 3 3 3 0 1 1 3 3 3 2 3 3 4 3 4 7 8 10 13 13 13 14 14 10
1 2 2 4 4 4 3 2 2 3 3 3 3 3 3 3 3 3 2 1 2 3 4 2 2 3 3 4 4 4 5 6 8 9 12 13 14 10
1 2 2 3 3 3 2 4 6 5 2 2 3 3 3 3 3 4 4 4 3 4 5 3 2 2 3 5 5 5 5 6 5 5 7 12 13 13
2 3 3 2 1 1 2 4 4 3 2 2 2 2 2 3 3 4 5 6 7 7 6 6 3 3 3 4 5 5 5 5 4 5 6 6 6 7
2 2 3 3 2 2 2 2 2 2 2 2 2 3 3 3 3 3 3 3 3 4 6 8 7 4 4 6 5 6 5 5 6 6 6 6 8 9
2 1 1 2 2 1 1 2 2 2 2 2 2 3 3 3 3 3 3 3 3 4 5 5 8 8 6 5 5 5 6 6 6 6 7 7 6 8
3 1 1 1 1 1 1 1 2 2 2 2 2 3 3 3 4 4 4 3 4 4 5 5 5 5 5 5 3 5 6 7 7 7 6 7 8 7
3 1 1 1 1 1 1 1 2 2 2 2 2 3 3 4 4 4 5 5 5 5 5 5 5 5 7 8 6 6 7 8 7 6 6 7 9 9
2 1 1 1 1 1 1 1 1 2 2 2 3 3 3 4 4 5 5 5 5 5 6 5 5 5 6 8 8 8 10 6 6 7 8 7 7 11
1 1 1 1 1 1 1 1 2 2 2 2 2 3 3 3 4 4 5 7 6 5 6 6 7 9 7 5 7 7 7 12 11 8 8 8 9 8
1 1 0 1 1 1 1 1 2 2 2 2 2 3 3 3 4 5 5 5 5 6 7 7 7 7 6 7 9 9 9 9 13 16 14 12 8 9
2 1 1 1 1 1 1 1 1 2 2 2 2 3 3 3 4 4 5 5 5 6 7 7 7 6 7 7 8 9 11 11 8 8 8 15 19 20
Wind_Direction
50 59 62 51 33 27 32 60 93 55 2 64 57 79 103 102 82 90 114 85 68 48 41 39 34 31 32 32 31 31 28 24 21 18 15 13 14 15
67 55 41 39 37 28 23 22 45 88 67 1 81 180 96 92 101 69 140 119 92 62 21 20 18 14 18 21 21 21 20 18 16 14 10 7 7 5
78 84 68 49 45 28 25 28 30 53 59 343 20 40 75 55 65 338 239 196 206 211 269 322 339 338 343 352 359 2 2 2 1 359 357 357 355 353
62 85 97 84 62 38 33 30 32 49 80 10 350 6 15 9 48 321 316 275 240 241 243 257 272 278 286 290 313 328 336 338 338 336 337 336 335 333
93 87 81 76 68 46 53 35 13 38 60 76 337 336 333 351 27 336 323 317 302 278 250 249 254 261 267 266 279 292 304 311 314 315 319 321 321 320
99 100 83 77 62 32 45 25 28 33 28 35 338 325 312 320 48 333 332 317 307 302 282 262 254 261 262 265 268 275 281 287 291 296 300 304 307 307
88 100 101 92 80 65 60 31 34 38 22 15 337 343 334 347 329 312 323 314 308 320 322 301 275 268 260 259 262 268 271 275 280 287 290 294 296 297
95 93 115 109 95 83 76 67 77 85 19 14 351 344 328 333 332 335 327 336 320 322 337 300 297 281 270 255 259 262 265 269 274 280 286 291 293 294
94 97 87 94 115 158 216 276 309 261 206 177 240 285 304 320 337 341 335 320 290 291 336 300 298 295 292 290 285 276 270 272 278 283 287 291 293 293
131 118 98 69 32 32 45 47 326 291 245 209 216 248 286 328 339 318 300 312 303 311 349 292 302 301 301 298 300 298 290 284 287 288 289 291 292 292
87 66 84 80 33 28 27 4 339 329 323 287 262 272 291 312 340 9 344 346 321 310 325 312 306 310 301 303 308 304 297 295 296 291 290 291 294 294
99 82 68 69 41 33 35 24 1 332 335 331 326 316 321 319 320 317 272 319 319 310 330 347 329 343 320 306 330 327 315 309 302 298 298 299 298 296
75 84 78 70 54 36 33 32 341 330 326 338 352 355 356 354 349 340 337 259 283 288 314 345 326 330 302 305 312 316 322 322 318 312 309 307 305 296
87 86 92 92 71 41 26 6 0 6 0 3 0 348 346 338 335 349 341 332 309 292 313 346 316 310 309 305 304 311 319 319 316 316 317 317 311 304
77 88 93 84 66 34 5 6 7 17 14 8 348 336 334 335 349 355 350 340 326 321 328 334 325 309 297 290 295 301 311 309 317 323 320 314 307 308
76 73 80 80 59 14 11 8 11 15 18 358 341 331 339 345 344 346 338 333 328 319 331 332 327 317 301 292 293 299 306 306 316 314 310 306 306 303
112 85 72 72 63 36 22 15 12 12 8 351 346 347 348 348 342 344 340 333 328 321 325 328 325 315 304 297 302 304 312 312 310 313 316 309 300 306
101 93 79 78 77 47 37 17 14 9 2 356 351 351 348 346 341 341 342 339 332 330 328 329 337 338 334 317 301 315 316 310 310 313 317 314 308 309
101 103 73 44 53 51 43 31 4 353 2 1 351 350 350 346 343 342 345 345 339 332 328 330 341 344 331 319 310 321 313 311 316 316 313 310 305 307
103 106 81 60 60 50 35 20 9 10 12 5 359 360 0 354 348 342 340 336 328 324 326 333 339 334 315 304 301 307 316 314 317 311 307 303 295 299
117 100 69 71 69 59 44 41 32 18 11 7 2 360 359 355 343 336 332 333 332 329 329 324 318 323 314 314 310 308 311 319 318 310 309 312 311 308
138 136 100 79 74 68 60 53 35 17 6 6 1 355 351 348 335 330 329 328 327 324 319 316 319 325 322 314 309 309 311 316 320 315 306 301 304 306
143 128 101 84 80 78 73 52 31 2 359 3 359 348 343 336 328 325 324 323 322 322 321 320 322 321 317 312 312 312 313 316 318 318 310 312 307 301
Height
1566 1566 1566 1565 1565 1565 1565 1565 1566 1565 1565 1564 1563 1562 1561 1560 1559 1558 1557 1556 1555 1554 1552 1551 1550 1549 1548 1547 1546 1546 1545 1544 1543 1542 1541 1540 1539 1538
1566 1566 1566 1565 1565 1565 1565 1565 1565 1565 1564 1564 1563 1562 1561 1560 1559 1558 1557 1556 1555 1553 1552 1551 1549 1548 1547 1547 1546 1545 1544 1543 1542 1541 1540 1539 1538 1537
1566 1566 1566 1565 1565 1565 1565 1565 1564 1564 1564 1564 1563 1562 1561 1560 1559 1558 1556 1555 1554 1553 1552 1550 1549 1548 1547 1546 1545 1544 1543 1542 1541 1540 1539 1537 1536 1535
1566 1566 1565 1565 1565 1565 1564 1564 1564 1564 1564 1563 1563 1562 1561 1560 1558 1557 1556 1555 1553 1552 1551 1550 1548 1547 1546 1545 1544 1543 1542 1541 1539 1538 1537 1536 1534 1533
1566 1565 1565 1565 1565 1564 1564 1564 1564 1563 1563 1562 1562 1561 1560 1559 1558 1557 1555 1554 1553 1551 1550 1549 1548 1546 1545 1544 1542 1541 1540 1539 1537 1536 1535 1533 1532 1531
1565 1565 1565 1565 1564 1564 1563 1563 1563 1562 1562 1561 1561 1560 1559 1558 1557 1555 1554 1553 1551 1550 1549 1548 1546 1545 1543 1542 1541 1539 1538 1536 1535 1533 1532 1530 1529 1527
1565 1565 1564 1564 1564 1563 1563 1562 1562 1561 1561 1560 1560 1559 1558 1557 1555 1554 1552 1551 1550 1549 1547 1546 1544 1543 1541 1540 1539 1537 1535 1534 1532 1530 1529 1527 1525 1524
1563 1563 1563 1563 1563 1563 1562 1562 1561 1560 1560 1559 1558 1558 1557 1555 1554 1553 1551 1549 1547 1547 1545 1544 1542 1540 1539 1537 1536 1534 1533 1531 1529 1527 1525 1524 1522 1520
1562 1562 1562 1562 1562 1561 1561 1560 1560 1559 1559 1558 1557 1556 1555 1554 1552 1551 1549 1548 1546 1545 1543 1540 1539 1537 1536 1535 1533 1531 1530 1528 1526 1524 1522 1520 1518 1516
1561 1561 1561 1561 1560 1559 1559 1559 1558 1558 1557 1556 1555 1554 1553 1552 1550 1549 1547 1545 1544 1542 1540 1538 1536 1535 1533 1532 1530 1528 1527 1525 1522 1520 1518 1516 1513 1511
1559 1559 1559 1559 1559 1558 1557 1557 1556 1556 1555 1554 1554 1552 1551 1550 1548 1547 1544 1542 1540 1539 1538 1536 1533 1531 1530 1528 1527 1525 1523 1521 1519 1517 1514 1512 1509 1507
1557 1557 1557 1557 1557 1556 1555 1554 1554 1553 1553 1552 1551 1550 1549 1547 1546 1544 1542 1540 1538 1536 1535 1534 1531 1529 1526 1525 1524 1522 1519 1517 1515 1512 1510 1507 1505 1502
1555 1555 1555 1555 1554 1554 1553 1553 1552 1551 1550 1550 1549 1548 1546 1545 1543 1542 1540 1538 1536 1535 1534 1531 1529 1526 1524 1521 1519 1518 1515 1513 1510 1508 1506 1503 1500 1497
1552 1552 1552 1552 1552 1552 1551 1551 1550 1549 1548 1547 1546 1545 1543 1542 1540 1539 1538 1536 1534 1533 1531 1529 1526 1524 1521 1518 1515 1513 1511 1509 1506 1503 1501 1498 1495 1493
1550 1550 1550 1550 1550 1549 1549 1548 1548 1547 1546 1545 1543 1542 1541 1540 1538 1536 1534 1533 1531 1529 1528 1526 1523 1521 1518 1515 1512 1509 1507 1504 1502 1499 1496 1493 1490 1487
1548 1548 1548 1548 1548 1547 1547 1546 1545 1545 1544 1542 1541 1540 1538 1537 1535 1533 1531 1529 1527 1525 1524 1522 1520 1517 1514 1511 1509 1506 1503 1500 1497 1494 1491 1488 1485 1482
1545 1545 1545 1545 1545 1545 1544 1544 1543 1542 1541 1540 1538 1536 1535 1533 1532 1530 1528 1526 1524 1521 1519 1517 1515 1513 1511 1508 1505 1502 1499 1496 1493 1489 1486 1482 1480 1477
1543 1543 1543 1543 1542 1542 1542 1541 1540 1539 1538 1537 1535 1534 1532 1530 1528 1527 1525 1523 1521 1518 1516 1513 1511 1508 1505 1503 1502 1498 1495 1491 1488 1485 1481 1477 1473 1471
1541 1540 1540 1540 1540 1540 1539 1539 1538 1537 1536 1534 1533 1531 1529 1527 1525 1523 1522 1519 1517 1515 1513 1510 1508 1504 1501 1498 1496 1495 1491 1487 1483 1479 1476 1472 1468 1464
1538 1538 1538 1538 1538 1538 1537 1536 1535 1534 1533 1531 1530 1528 1526 1524 1522 1520 1518 1516 1514 1511 1509 1507 1505 1502 1499 1496 1492 1489 1488 1484 1479 1474 1470 1467 1463 1459
1536 1536 1536 1536 1535 1535 1534 1533 1532 1531 1530 1528 1527 1525 1523 1521 1519 1517 1515 1513 1511 1508 1505 1503 1501 1499 1496 1492 1488 1484 1482 1480 1476 1472 1466 1461 1456 1452
1533 1533 1533 1533 1532 1532 1531 1530 1529 1528 1526 1525 1523 1522 1520 1518 1516 1514 1512 1509 1507 1504 1502 1499 1496 1494 1491 1487 1483 1479 1475 1473 1470 1467 1463 1460 1455 1448
1531 1531 1530 1530 1529 1528 1528 1527 1525 1524 1523 1521 1520 1518 1516 1514 1512 1510 1508 1506 1503 1500 1498 1495 1492 1489 1486 1483 1479 1475 1471 1467 1463 1459 1456 1454 1451 1447